Location: Brantley
(31.5822°N, 86.2569°W)
Time: 13:08:50
(UTC+00:00)

Vanguard 2 - Pass Details

Date: 24 February 2026
Orbit: 553 x 2896 km, 32.9° (Epoch: 17 March)

Event Time Altitude Azimuth Distance (km) Brightness Sun altitude
Rises 15:55:38 0° 264° (W) 2,754 10.1 39.7°
Drops below altitude 10° 16:00:25 10° 212° (SSW) 1,835 9.8 40.4°
Maximum altitude 16:00:29 10° 211° (SSW) 1,837 9.8 40.4°
Sets 16:05:39 0° 159° (SSE) 2,970 11.3 41.1°
